Hill City, KS

6:11 AM CDT on August 20, 2017 (GMT -0500)
Hill City Municipal

Weather History for KHLC - February, 2013

Change the Weather History Date:

Saturday, February 2, 2013

  Actual Average Record
Temperature  
Mean Temperature 43 °F 30 °F  
Max Temperature 56 °F 43 °F 80 °F (2003)
Min Temperature 29 °F 18 °F -12 °F (1985)
Degree Days  
Heating Degree Days 24    
Moisture  
Dew Point 26 °F    
Average Humidity 60    
Maximum Humidity 89    
Minimum Humidity 28    
Precipitation  
Precipitation 0.00 in 0.02 in 0.31 in (2016)
Month to date precipitation 0.00 0.04  
Year to date precipitation 0.09 0.49  
Sea Level Pressure  
Sea Level Pressure 30.26 in    
Wind  
Wind Speed 10 mph (WNW)    
Max Wind Speed 20 mph    
Max Gust Speed 26 mph    
Visibility 10 miles    
Events      
T = Trace of Precipitation, MM = Missing Value Source: NWS Daily Summary

Daily Weather History Graph

Daily Weather History Graph

Search for Another Location

Airport or City:

Trip Planner

Search our weather history database for the weather conditions in past years. The results will help you decide how hot, cold, wet, or windy it might be!

Date:

Astronomy

Feb. 02, 2013 Rise Set
Actual Time 7:45 AM CST 6:01 PM CST
Civil Twilight 7:17 AM CST 6:29 PM CST
Nautical Twilight 6:45 AM CST 7:01 PM CST
Astronomical Twilight 6:13 AM CST 7:33 PM CST
Moon 12:06 AM CST (2/2) 10:59 AM CST (2/2)
Length of Visible Light 11h 12m
Length of Day
10h 16m
Waning Gibbous, 59% of the Moon is Illuminated
Feb 2
Waning Gibbous
Feb 3
Last Quarter
Feb 10
New
Feb 17
First Quarter
Feb 25
Full

Hourly Weather History & Observations

Time (CST) Temp. Windchill Dew Point Humidity Pressure Visibility Wind Dir Wind Speed Gust Speed Precip Events Conditions
12:53 AM 37.9 °F 31.5 °F 33.1 °F 83% 30.19 in 10.0 mi WNW 9.2 mph - N/A   Overcast
1:53 AM 36.0 °F 28.0 °F 32.0 °F 86% 30.20 in 10.0 mi WNW 11.5 mph - N/A   Clear
3:53 AM 32.0 °F 27.5 °F 28.9 °F 88% 30.22 in 10.0 mi WNW 4.6 mph - N/A   Clear
4:53 AM 30.9 °F 26.2 °F 28.0 °F 89% 30.22 in 10.0 mi West 4.6 mph - N/A   Clear
5:53 AM 33.1 °F 25.5 °F 28.9 °F 85% 30.26 in 10.0 mi WNW 9.2 mph - N/A   Clear
6:53 AM 28.9 °F 20.4 °F 26.1 °F 89% 30.27 in 10.0 mi West 9.2 mph - N/A   Clear
7:53 AM 30.0 °F 21.7 °F 26.1 °F 85% 30.28 in 10.0 mi West 9.2 mph - N/A   Clear
8:53 AM 35.1 °F 26.9 °F 28.0 °F 76% 30.30 in 10.0 mi West 11.5 mph - N/A   Clear
9:53 AM 42.1 °F 34.9 °F 30.0 °F 62% 30.30 in 10.0 mi WNW 13.8 mph - N/A   Clear
10:53 AM 46.0 °F 39.3 °F 30.0 °F 54% 30.30 in 10.0 mi NW 16.1 mph 25.3 mph N/A   Clear
11:53 AM 48.9 °F - 28.0 °F 44% 30.29 in 10.0 mi NNW 15.0 mph - N/A   Clear
12:53 PM 53.1 °F - 26.1 °F 35% 30.25 in 10.0 mi NW 12.7 mph 20.7 mph N/A   Clear
1:53 PM 55.9 °F - 23.0 °F 28% 30.23 in 10.0 mi WNW 15.0 mph 26.5 mph N/A   Clear
2:53 PM 55.0 °F - 23.0 °F 29% 30.22 in 10.0 mi NW 15.0 mph 25.3 mph N/A   Clear
3:53 PM 55.0 °F - 23.0 °F 29% 30.21 in 10.0 mi WNW 19.6 mph 24.2 mph N/A   Clear
4:53 PM 55.0 °F - 23.0 °F 29% 30.22 in 10.0 mi WNW 13.8 mph 20.7 mph N/A   Clear
5:53 PM 50.0 °F - 21.9 °F 33% 30.23 in 10.0 mi WNW 10.4 mph 18.4 mph N/A   Clear
6:53 PM 44.1 °F 39.5 °F 23.0 °F 43% 30.27 in 10.0 mi WNW 8.1 mph - N/A   Clear
7:53 PM 37.0 °F 31.6 °F 23.0 °F 57% 30.30 in 10.0 mi WNW 6.9 mph - N/A   Clear
8:53 PM 39.9 °F 33.9 °F 23.0 °F 51% 30.30 in 10.0 mi NW 9.2 mph - N/A   Clear
9:53 PM 37.0 °F 31.0 °F 23.0 °F 57% 30.30 in 10.0 mi WNW 8.1 mph - N/A   Clear
10:53 PM 32.0 °F 26.4 °F 23.0 °F 69% 30.32 in 10.0 mi West 5.8 mph - N/A   Clear
11:53 PM 32.0 °F 24.8 °F 23.0 °F 69% 30.32 in 10.0 mi WSW 8.1 mph - N/A   Clear